Location: Dillon
(41.1766°N, 107.0923°W)
Time: 17:59:36
(UTC+00:00)

DIWATA 2B (PO-101) - Pass Details

Date: 28 June 2022
Orbit: 583 x 599 km, 98.0° (Epoch: 18 August)

Event Time Altitude Azimuth Distance (km) Brightness Sun altitude
Exits shadow 09:16:02 47° 197° (SSW) 793 ? -19.4°
Maximum altitude 09:17:04 67° 258° (WSW) 653 ? -19.3°
Drops below altitude 10° 09:21:16 10° 342° (NNW) 1,948 ? -18.9°
Sets 09:23:28 0° 345° (NNW) 2,855 ? -18.7°
